Satellite: SRMSAT
Catalog number: 37841
Epoch time: 12124.78678427
Element set: 142
Inclination: 019.9745 deg
RA of node: 271.2223 deg
Eccentricity: 0.0011139
Arg of perigee: 061.2528 deg
Mean anomaly: 298.9144 deg
Mean motion: 14.10134668 rev/day
Decay rate: 2.64e-06 rev/day^2
Epoch rev: 2891
Checksum: 294
Satellite: RAX-2
Catalog number: 37853
Epoch time: 12123.95477718
Element set: 0177
Inclination: 101.7158 deg
RA of node: 143.5585 deg
Eccentricity: 0.0249112
Arg of perigee: 119.9210 deg
Mean anomaly: 242.6981 deg
Mean motion: 14.79538602 rev/day
Decay rate: 4.821e-05 rev/day^2
Epoch rev: 02771
Checksum: 314
Satellite: AUBIESAT
Catalog number: 37854
Epoch time: 12124.79962586
Element set: 168
Inclination: 101.7185 deg
RA of node: 144.9774 deg
Eccentricity: 0.0250449
Arg of perigee: 116.8937 deg
Mean anomaly: 245.8094 deg
Mean motion: 14.79901000 rev/day
Decay rate: 4.664e-05 rev/day^2
Epoch rev: 2782
Checksum: 332
Satellite: HRBE
Catalog number: 37855
Epoch time: 12124.80925111
Element set: 167
Inclination: 101.7191 deg
RA of node: 144.9603 deg
Eccentricity: 0.0250191
Arg of perigee: 116.9367 deg
Mean anomaly: 245.7622 deg
Mean motion: 14.79774256 rev/day
Decay rate: 4.533e-05 rev/day^2
Epoch rev: 2782
Checksum: 299
Satellite: RS-39
Catalog number: 38051
Epoch time: 12124.85726972
Element set: 302
Inclination: 051.6310 deg
RA of node: 010.9781 deg
Eccentricity: 0.0010526
Arg of perigee: 237.5295 deg
Mean anomaly: 198.8815 deg
Mean motion: 15.23540625 rev/day
Decay rate: 6.991e-05 rev/day^2
Epoch rev: 1521
Checksum: 295
Satellite: E-STAR
Catalog number: 38079
Epoch time: 12124.87187831
Element set: 196
Inclination: 069.5050 deg
RA of node: 056.7849 deg
Eccentricity: 0.0755793
Arg of perigee: 303.7276 deg
Mean anomaly: 049.3859 deg
Mean motion: 14.12557633 rev/day
Decay rate: 3.9192e-04 rev/day^2
Epoch rev: 1132
Checksum: 338
Satellite: GOLIAT
Catalog number: 38085
Epoch time: 12124.83391227
Element set: 185
Inclination: 069.4849 deg
RA of node: 056.9883 deg
Eccentricity: 0.0757240
Arg of perigee: 303.7440 deg
Mean anomaly: 049.3635 deg
Mean motion: 14.11652581 rev/day
Decay rate: 3.5221e-04 rev/day^2
Epoch rev: 1131
Checksum: 298
/EX
More information about the Keps
mailing list